Flag Weather past 2 weeks in Barysaw, Belarus

Now
32 °F

Clear.


Feels Like: 32 °F
Forecast: 25 / 30 °F
Wind: No wind

Location: Minsk

Current Time: Nov 23, 2014 at 2:10:41 PM

Latest Report: Nov 23, 2014 at 1:30 PM


Visibility: 6 mi

Pressure: 30.48 "Hg

Humidity: 69%

Dew point: 23 °F

Location of BarysawLocation

Historic Weather in Barysaw — Graph

°F

Barysaw temperature yesterday

Maximum temperature yesterday: 30 °F (at 2:00 PM)
Minimum temperature yesterday: 21 °F (at 2:00 AM)
Average temperature yesterday: 26 °F

Past Weeks' High & Low Weather Summary

 TemperatureHumidityPressure
High50 °F (Nov 8, 1:30 PM)100% (Nov 8, 10:30 PM)30.48 "Hg (Nov 8, 10:30 PM)
Low21 °F (Nov 22, 2:00 AM)59% (Nov 18, 3:00 PM)30.01 "Hg (Nov 8, 1:00 PM)
Average35 °F89%30.26 "Hg
* Reported Nov 8 1:00 PM — Nov 23 1:00 PM, Barysaw, Weather by CustomWeather, © 2014

Note: Actual official high and low records may vary slightly from our data, if they occured in-between our weather recording intervals... More about our weather records

Advertising

Barysaw weather history for previous 24 hours

 ConditionsComfort  
Time TempWeatherWind HumidityBarometerVisibility
1:00 PM
Nov 23
30 °FClear.No wind75%30.48 "Hg5 mi
12:30 PM30 °FClear.No wind75%30.48 "Hg5 mi
12:00 PM30 °FClear.No wind75%30.48 "Hg5 mi
11:30 AM30 °FClear.No wind75%30.48 "Hg5 mi
11:00 AM30 °FClear.No wind80%30.45 "Hg5 mi
10:30 AM28 °FClear.No wind86%30.45 "Hg5 mi
10:00 AM28 °FClear.No wind93%30.45 "Hg4 mi
9:30 AM28 °FClear.No wind86%30.45 "Hg4 mi
9:00 AM28 °FClear.No wind86%30.42 "Hg5 mi
8:30 AM27 °FClear.No wind93%30.42 "Hg6 mi
8:00 AM27 °FClear.No wind100%30.42 "Hg5 mi
7:30 AM27 °FClear.No wind93%30.42 "Hg4 mi
7:00 AM28 °FClear.No wind86%30.39 "Hg6 mi
6:30 AM27 °FClear.No wind93%30.39 "Hg4 mi
6:00 AM27 °FClear.No wind93%30.39 "Hg4 mi
5:30 AM27 °FClear.No wind93%30.39 "Hg4 mi
5:00 AM27 °FClear.No wind93%30.39 "Hg4 mi
4:30 AM27 °FClear.No wind93%30.39 "Hg5 mi
4:00 AM27 °FClear.No wind93%30.39 "Hg5 mi
3:30 AM27 °FClear.No wind93%30.39 "Hg10 mi
3:00 AM28 °FClear.No wind86%30.39 "Hg10 mi
2:30 AM27 °FClear.No wind93%30.39 "Hg10 mi
2:00 AM28 °FClear.No wind86%30.39 "Hg10 mi
1:30 AM28 °FClear.No wind86%30.39 "Hg10 mi
1:00 AM28 °FClear.No wind86%30.39 "Hg10 mi
12:30 AM28 °FClear.No wind86%30.36 "Hg10 mi
12:00 AM28 °FClear.No wind86%30.36 "Hg10 mi
11:30 PM
Nov 22
28 °FClear.No wind86%30.36 "Hg10 mi
11:00 PM28 °FClear.No wind86%30.36 "Hg10 mi
10:30 PM28 °FClear.No wind86%30.36 "Hg10 mi
10:00 PM28 °FClear.No wind80%30.36 "Hg10 mi
9:30 PM28 °FClear.No wind86%30.36 "Hg10 mi
9:00 PM28 °FClear.No wind86%30.36 "Hg10 mi
8:30 PM28 °FClear.No wind86%30.36 "Hg10 mi
8:00 PM28 °FClear.No wind86%30.36 "Hg10 mi
7:30 PM28 °FClear.No wind86%30.36 "Hg10 mi
7:00 PM28 °FClear.No wind86%30.36 "Hg10 mi
6:30 PM28 °FClear.No wind86%30.36 "Hg10 mi
6:00 PM28 °FSunny.No wind86%30.36 "Hg10 mi
5:30 PM30 °FSunny.No wind75%30.36 "Hg10 mi
5:00 PM30 °FSunny.No wind75%30.36 "Hg10 mi
4:30 PM30 °FSunny.No wind75%30.36 "Hg10 mi
4:00 PM30 °FSunny.No wind75%30.33 "Hg10 mi
3:30 PM30 °FSunny.No wind69%30.33 "Hg10 mi
3:00 PM30 °FPassing clouds.3 mph69%30.33 "HgN/A
2:30 PM30 °FSunny.1 mph69%30.33 "Hg10 mi
2:00 PM30 °FSunny.3 mph69%30.33 "Hg10 mi
Weather by CustomWeather, © 2014

See weather overviewHow to use our weather pages